New Orleans Nas Jrb,Alvin Callender Field, Airport New Orleans US
ICAO: KNBG
IATA: NBG
Category: Medium
Scheduled Services: No

Elevation: 2 ft
TransAlt. 18000 ft.

Airport Communications:
APP/DEP:123.85
ATIS:27.62
NAVY NEW ORLEANS GND:121.6
USCG NEW ORLEANS AIR:38.18
BASE OPS:37.915
PMSV METRO:26.58
NAVY NEW ORLEANS TWR:123.8

KNBG Zoom In..

Runways:

(A) RW 04 length 10000 ft width 200 ft
ILS 109.50 / hdg 44

(B) RW 14 length 6000 ft width 200 ft
---- / hdg 141

(C) RW 22 length 10000 ft width 200 ft
---- / hdg 224

(D) RW 32 length 6000 ft width 200 ft
---- / hdg 321

Location; KNBG
Day. 19 / Time. 02.55 Zulu
* Altimeter: 29.95
* Temperature: 6/° c. 42.8°f.
* Wind from: 000° Speed 00 kn.
Dewpoint: //° c.
Visibility: 6 Statute Miles.
Clouds: Few 4900 ft.
Clouds: Broken 1000 ft.
Clouds: Broken 12000 ft.
Conditions: Light Rain.Conditions: Mist.

KNBG 190255Z 00000KT 6SM -RA BR FEW049 BKN100 BKN120 23/22 A2995 RMK AO2 SLP142 P0000 6//// T02330222 58001 $


Wind - Calm.

 
 
jpsmedia.com for Web Design worldairports.se 2018   terms of use